KD7QQY Weather Reports


time (UTC)temp
C
wind
direction
speed
KPH
gust
KPH
rain 1hr
cm
rain 24hr
cm
rain mn
cm
humidity
%
barometer
mb
20260503230041 17 274 14.5 29.0 0.00 0.08 0.00 70 1008.2
20260503225522 17 296 16.1 29.0 0.00 0.08 0.00 70 1008.3
20260503225023 17 312 14.5 27.4 0.00 0.08 0.00 70 1008.3
20260503224539 17 319 14.5 33.8 0.00 0.08 0.00 69 1008.5
20260503224023 17 290 17.7 33.8 0.00 0.08 0.00 67 1008.6
20260503223522 17 311 16.1 30.6 0.00 0.08 0.00 67 1008.6
20260503223036 17 300 12.9 30.6 0.00 0.08 0.00 67 1008.7
20260503222522 17 317 17.7 30.6 0.00 0.08 0.00 68 1008.8
20260503222023 17 324 16.1 27.4 0.00 0.08 0.00 69 1008.8
20260503221537 16 311 14.5 25.7 0.00 0.08 0.00 70 1008.8
20260503221023 16 313 14.5 27.4 0.00 0.08 0.00 70 1008.9
20260503220523 16 319 12.9 27.4 0.00 0.08 0.00 69 1008.8
20260503220047 17 297 11.3 22.5 0.00 0.08 0.00 69 1008.9
20260503215523 17 336 11.3 24.1 0.00 0.08 0.00 69 1008.9
20260503215024 17 304 11.3 24.1 0.00 0.08 0.00 69 1008.9
20260503214539 17 309 11.3 24.1 0.00 0.08 0.00 68 1009.0
20260503214023 17 321 12.9 24.1 0.00 0.08 0.00 67 1009.0
20260503213523 17 281 11.3 24.1 0.00 0.08 0.00 67 1009.1
20260503213038 17 296 11.3 25.7 0.00 0.08 0.00 67 1009.1
20260503212525 17 306 12.9 25.7 0.00 0.08 0.00 66 1009.0
20260503212023 18 285 12.9 27.4 0.00 0.08 0.00 65 1009.1
20260503211546 18 302 12.9 27.4 0.00 0.08 0.00 65 1009.0
20260503211023 18 327 11.3 22.5 0.00 0.08 0.00 65 1009.1
20260503210522 18 288 11.3 20.9 0.00 0.08 0.00 66 1009.1
20260503210043 18 273 9.7 17.7 0.00 0.08 0.00 65 1009.2
20260503205524 18 320 8.0 17.7 0.00 0.08 0.00 65 1009.2
20260503205024 18 290 9.7 22.5 0.00 0.08 0.00 65 1009.2
20260503204536 18 285 6.4 22.5 0.00 0.08 0.00 65 1009.2
20260503204023 18 316 8.0 19.3 0.00 0.08 0.00 63 1009.3
20260503203523 18 329 9.7 17.7 0.00 0.08 0.00 64 1009.3
20260503203053 18 292 8.0 16.1 0.00 0.08 0.00 62 1009.4
20260503202522 18 336 6.4 16.1 0.00 0.08 0.00 64 1009.3
20260503202026 18 288 8.0 16.1 0.00 0.08 0.00 64 1009.5
20260503201544 18 289 8.0 16.1 0.00 0.08 0.00 63 1009.4
20260503201023 19 339 6.4 16.1 0.00 0.08 0.00 63 1009.6
20260503200523 19 310 6.4 16.1 0.00 0.08 0.00 62 1009.6
20260503200039 19 294 8.0 16.1 0.00 0.08 0.00 62 1009.7
20260503195524 19 306 8.0 16.1 0.00 0.08 0.00 61 1009.8
20260503195027 19 306 6.4 16.1 0.00 0.08 0.00 63 1009.7
20260503194555 19 313 8.0 17.7 0.00 0.08 0.00 61 1009.7
20260503194023 18 321 9.7 19.3 0.00 0.08 0.00 62 1009.8
20260503193525 18 300 8.0 19.3 0.00 0.08 0.00 62 1009.8
20260503193043 18 301 8.0 19.3 0.00 0.08 0.00 62 1009.9
20260503192522 18 350 9.7 19.3 0.00 0.08 0.00 61 1009.8
20260503192022 18 300 8.0 17.7 0.00 0.08 0.00 61 1009.9
20260503191544 18 309 8.0 17.7 0.00 0.08 0.00 61 1009.9
20260503191022 18 340 8.0 14.5 0.00 0.08 0.00 62 1009.9
20260503190523 19 304 6.4 14.5 0.00 0.08 0.00 62 1010.0
20260503190042 19 308 4.8 12.9 0.00 0.08 0.00 63 1010.0
20260503185523 19 330 4.8 12.9 0.00 0.08 0.00 64 1010.1
20260503185023 20 292 4.8 12.9 0.00 0.08 0.00 65 1010.1
20260503184539 20 298 4.8 12.9 0.00 0.08 0.00 64 1010.1
20260503184023 20 301 4.8 9.7 0.00 0.08 0.00 63 1010.2
20260503183522 20 302 3.2 9.7 0.00 0.08 0.00 66 1010.1
20260503183039 20 312 3.2 9.7 0.00 0.08 0.00 66 1010.2
20260503182522 19 323 4.8 9.7 0.00 0.08 0.00 67 1010.2
20260503182023 19 319 4.8 8.0 0.00 0.08 0.00 70 1010.2
20260503181542 18 304 3.2 11.3 0.00 0.08 0.00 71 1010.2
20260503181023 18 319 3.2 11.3 0.00 0.08 0.00 72 1010.2
20260503180523 18 292 3.2 6.4 0.00 0.08 0.00 71 1010.2
20260503180055 18 281 1.6 8.0 0.00 0.08 0.00 71 1010.2
20260503175523 18 301 3.2 8.0 0.00 0.08 0.00 71 1010.3
20260503175022 18 294 1.6 6.4 0.00 0.08 0.00 70 1010.3
20260503174543 19 281 3.2 6.4 0.00 0.08 0.00 69 1010.3
20260503174022 19 290 3.2 6.4 0.00 0.08 0.00 67 1010.3
20260503173522 19 0 1.6 6.4 0.00 0.08 0.00 66 1010.3
20260503173041 20 289 3.2 9.7 0.00 0.08 0.00 64 1010.3
20260503172522 21 282 3.2 9.7 0.00 0.08 0.00 57 1010.3
20260503172023 23 355 1.6 4.8 0.00 0.08 0.00 56 1010.4
20260503171546 23 18 0.0 4.8 0.00 0.08 0.00 56 1010.4
20260503171026 22 0 0.0 4.8 0.00 0.08 0.00 55 1010.4
20260503170523 22 0 0.0 4.8 0.00 0.08 0.00 55 1010.4
20260503150522 15 0 3.2 11.3 0.00 0.08 0.00 77 1010.6
20260503131025 11 0 0.0 0.0 0.00 0.08 0.00 90 1010.4
20260503130523 11 0 0.0 0.0 0.00 0.08 0.00 89 1010.4
20260503110524 12 74 1.6 9.7 0.00 0.08 0.00 96 1010.8
20260503081538 10 0 0.0 4.8 0.00 0.08 0.00 98 1011.1
20260503081026 10 0 0.0 3.2 0.00 0.08 0.00 98 1011.2
20260503080523 10 0 0.0 4.8 0.00 0.08 0.00 98 1011.2
20260503072525 9 0 0.0 3.2 0.00 0.08 0.00 98 1011.4
20260503072023 9 0 0.0 3.2 0.00 0.08 0.00 98 1011.3
20260503071556 9 0 0.0 3.2 0.00 0.08 0.00 98 1011.3
20260503071025 9 0 0.0 4.8 0.00 0.08 0.00 98 1011.3
20260503070527 9 0 1.6 4.8 0.00 0.08 0.00 98 1011.2
20260503060105 8 0 0.0 3.2 0.00 0.08 0.08 98 1011.1
20260503055023 8 84 1.6 4.8 0.00 0.08 0.08 98 1011.3
20260503054549 8 84 1.6 4.8 0.00 0.08 0.08 97 1011.3
20260503054024 8 28 0.0 3.2 0.00 0.08 0.08 97 1011.2
20260503053524 8 0 0.0 1.6 0.00 0.08 0.08 97 1011.3
20260503053042 8 0 0.0 1.6 0.00 0.08 0.08 98 1011.2
20260503052525 9 0 0.0 0.0 0.00 0.08 0.08 98 1011.3
20260503052026 9 0 0.0 0.0 0.00 0.08 0.08 98 1011.3
20260503051542 9 0 0.0 1.6 0.00 0.08 0.08 97 1011.2
20260503051024 9 0 0.0 1.6 0.00 0.08 0.08 98 1011.1
20260503050524 9 0 0.0 0.0 0.00 0.08 0.08 98 1011.1
20260503050042 9 0 0.0 0.0 0.00 0.08 0.08 98 1011.2
20260503045524 9 0 0.0 1.6 0.00 0.08 0.08 98 1011.2
20260503045027 9 0 0.0 3.2 0.00 0.08 0.08 98 1011.2
20260503044540 9 0 0.0 3.2 0.00 0.08 0.08 98 1011.1
20260503044024 9 303 0.0 1.6 0.03 0.08 0.08 98 1011.1
20260503043526 8 0 0.0 0.0 0.03 0.08 0.08 98 1011.0
20260503043039 8 0 0.0 0.0 0.03 0.08 0.08 97 1011.0
20260503042524 8 0 0.0 0.0 0.05 0.08 0.08 97 1011.0
20260503042024 8 0 0.0 0.0 0.05 0.08 0.08 97 1010.9
20260503041539 8 0 0.0 0.0 0.05 0.08 0.08 97 1010.9
20260503041026 8 0 0.0 4.8 0.05 0.08 0.08 97 1010.9
20260503040524 9 0 0.0 8.0 0.05 0.08 0.08 97 1010.9
20260503040042 9 0 1.6 8.0 0.08 0.08 0.08 97 1010.8
20260503035523 9 294 1.6 9.7 0.08 0.08 0.08 97 1010.8
20260503035023 9 294 3.2 14.5 0.08 0.08 0.08 98 1010.8
20260503034543 9 295 3.2 14.5 0.05 0.05 0.05 98 1010.6
20260503034025 9 289 6.4 16.1 0.05 0.05 0.05 97 1010.7
20260503033523 9 293 8.0 16.1 0.05 0.05 0.05 97 1010.7
20260503033043 9 275 6.4 17.7 0.05 0.05 0.05 97 1010.7
20260503032525 9 324 8.0 17.7 0.03 0.03 0.03 97 1010.6
20260503032023 9 323 8.0 16.1 0.03 0.03 0.03 97 1010.6
20260503031548 9 290 6.4 16.1 0.03 0.03 0.03 97 1010.5
20260503031025 9 295 6.4 17.7 0.03 0.03 0.03 97 1010.4
20260503030524 9 340 8.0 17.7 0.03 0.03 0.03 97 1010.5
20260503030047 9 284 8.0 19.3 0.00 0.00 0.00 97 1010.5
20260503025523 9 302 9.7 19.3 0.00 0.00 0.00 97 1010.4
20260503025024 9 280 11.3 19.3 0.00 0.00 0.00 97 1010.4
20260503024543 10 288 8.0 19.3 0.00 0.00 0.00 97 1010.3
20260503024026 10 299 8.0 19.3 0.00 0.00 0.00 97 1010.3
20260503023523 10 288 9.7 20.9 0.00 0.00 0.00 97 1010.3
20260503023046 10 331 11.3 20.9 0.00 0.00 0.00 97 1010.4
20260503022523 10 286 9.7 17.7 0.00 0.00 0.00 97 1010.4
20260503022023 10 339 8.0 17.7 0.00 0.00 0.00 97 1010.4
20260503021543 10 290 9.7 20.9 0.00 0.00 0.00 97 1010.4
20260503021023 10 313 9.7 20.9 0.00 0.00 0.00 96 1010.4
20260503020523 10 306 11.3 17.7 0.00 0.00 0.00 96 1010.4
20260503020042 10 338 9.7 17.7 0.00 0.00 0.00 97 1010.4
20260503015527 10 296 11.3 17.7 0.00 0.00 0.00 97 1010.4
20260503015025 10 314 8.0 17.7 0.00 0.00 0.00 97 1010.4
20260503014549 10 304 9.7 19.3 0.00 0.00 0.00 96 1010.5
20260503014020 10 329 11.3 19.3 0.00 0.00 0.00 96 1010.6
20260503013523 10 302 9.7 19.3 0.00 0.00 0.00 96 1010.6
20260503013039 10 335 11.3 20.9 0.00 0.00 0.00 96 1010.7
20260503012530 10 299 12.9 22.5 0.00 0.00 0.00 96 1010.7
20260503012026 10 302 11.3 22.5 0.00 0.00 0.00 96 1010.8
20260503011542 10 309 11.3 22.5 0.00 0.00 0.00 96 1010.8
20260503011023 10 308 12.9 24.1 0.00 0.00 0.00 96 1011.0
20260503010523 10 342 12.9 24.1 0.00 0.00 0.00 96 1011.0
20260503010042 10 301 14.5 24.1 0.00 0.00 0.00 96 1010.9
20260503005523 10 337 12.9 27.4 0.00 0.00 0.00 96 1010.9
20260503005024 10 295 12.9 27.4 0.00 0.00 0.00 96 1011.0
20260503004541 10 288 12.9 25.7 0.00 0.00 0.00 96 1010.9
20260503004026 10 267 12.9 25.7 0.00 0.00 0.00 95 1011.0
20260503003526 10 315 14.5 22.5 0.00 0.00 0.00 95 1011.0
20260503003039 10 340 12.9 22.5 0.00 0.00 0.00 95 1011.2
20260503002527 10 309 14.5 22.5 0.00 0.00 0.00 95 1011.2
20260503002024 10 294 11.3 20.9 0.00 0.00 0.00 95 1011.1
20260503001552 10 311 11.3 20.9 0.00 0.00 0.00 95 1011.1
20260503001025 10 340 12.9 20.9 0.00 0.00 0.00 94 1011.1
20260503000523 10 319 11.3 20.9 0.00 0.00 0.00 94 1011.2
20260503000046 10 293 9.7 22.5 0.00 0.00 0.00 94 1011.1
20260502235524 10 329 9.7 22.5 0.00 0.00 0.00 94 1011.3
20260502235023 11 327 12.9 22.5 0.00 0.00 0.00 94 1011.2
20260502234544 11 311 11.3 22.5 0.00 0.00 0.00 94 1011.3
20260502234025 11 313 9.7 22.5 0.00 0.00 0.00 94 1011.4
20260502233523 11 290 11.3 22.5 0.00 0.00 0.00 94 1011.4
20260502233045 11 288 12.9 22.5 0.00 0.00 0.00 93 1011.5
20260502232526 11 290 11.3 20.9 0.00 0.00 0.00 93 1011.7
20260502232023 11 301 11.3 22.5 0.00 0.00 0.00 93 1011.7
20260502231541 11 327 9.7 22.5 0.00 0.00 0.00 93 1011.8
20260502231023 11 296 11.3 20.9 0.00 0.00 0.00 93 1011.9
20260502230523 11 312 11.3 20.9 0.00 0.00 0.00 93 1011.8